Location: São Paulo
(23.5507°S, 46.6334°W)
Time: 10:04:10
(UTC-03:00)

Explorer 7 - Pass Details

Date: 21 February 2026
Orbit: 430 x 541 km, 50.2° (Epoch: 11 March)

Event Time Altitude Azimuth Distance (km) Brightness Sun altitude
Rises 23:44:32 0° 321° (NW) 2,687 - -55.1°
Reaches altitude 10° 23:46:45 10° 322° (NW) 1,805 - -55.3°
Maximum altitude 23:50:52 80° 47° (NE) 558 - -55.5°
Drops below altitude 10° 23:55:02 10° 136° (SE) 1,812 - -55.7°
Sets 23:57:15 0° 136° (SE) 2,699 - -55.8°
